• In Czech Republic
  • List of Countries
  • For 7 days
  • Water Temperature
  • Satellite Maps
  • Weather Map
  • Weather Widgets
  • user-avatar
    Login

    Hourly Weather Rangpur

    Today, 20 February, Tuesday

    Time Temperature Precipitation Wind Pressure Humidity
    00:00 +24°C° 0 mm 2 mps 756 mmHg 39%
    01:00 +24°C° 0 mm 2 mps 756 mmHg 41%
    02:00 +23°C° 0 mm 2 mps 757 mmHg 43%
    03:00 +23°C° 0 mm 2 mps 757 mmHg 44%
    04:00 +21°C° 0 mm 2 mps 757 mmHg 46%
    05:00 +21°C° 0 mm 2 mps 757 mmHg 48%
    06:00 +20°C° 0 mm 2 mps 757 mmHg 52%
    07:00 +21°C° 0 mm 2 mps 757 mmHg 50%
    08:00 +24°C° 0 mm 3 mps 757 mmHg 47%
    09:00 +25°C° 0 mm 3 mps 758 mmHg 44%
    10:00 +27°C° 0 mm 3 mps 758 mmHg 40%
    11:00 +28°C° 0 mm 3 mps 757 mmHg 35%
    12:00 +30°C° 0 mm 3 mps 757 mmHg 31%
    13:00 +31°C° 0 mm 2 mps 756 mmHg 29%
    14:00 +32°C° 0 mm 1 mps 755 mmHg 27%
    15:00 +32°C° 0 mm 1 mps 755 mmHg 25%
    16:00 +31°C° 0 mm 1 mps 755 mmHg 26%
    17:00 +30°C° 0 mm 1 mps 755 mmHg 28%
    18:00 +27°C° 0 mm 0 mps 755 mmHg 30%
    19:00 +28°C° 0 mm 1 mps 755 mmHg 31%
    20:00 +27°C° 0 mm 1 mps 755 mmHg 33%
    21:00 +26°C° 0 mm 2 mps 756 mmHg 34%
    22:00 +26°C° 0 mm 2 mps 755 mmHg 36%
    23:00 +25°C° 0 mm 2 mps 755 mmHg 38%

    Tomorrow, 21 February, Wednesday

    Time Temperature Precipitation Wind Pressure Humidity
    00:00 +24°C° 0 mm 2 mps 755 mmHg 39%
    01:00 +24°C° 0 mm 2 mps 755 mmHg 41%
    02:00 +23°C° 0 mm 2 mps 755 mmHg 43%
    03:00 +21°C° 0 mm 2 mps 754 mmHg 45%
    04:00 +21°C° 0 mm 2 mps 754 mmHg 47%
    05:00 +20°C° 0 mm 2 mps 754 mmHg 48%
    06:00 +20°C° 0 mm 2 mps 754 mmHg 50%
    07:00 +21°C° 0 mm 2 mps 755 mmHg 47%
    08:00 +24°C° 0 mm 2 mps 755 mmHg 44%
    09:00 +25°C° 0 mm 3 mps 756 mmHg 42%
    10:00 +27°C° 0 mm 2 mps 756 mmHg 37%
    11:00 +29°C° 0 mm 2 mps 756 mmHg 33%
    12:00 +31°C° 0 mm 2 mps 755 mmHg 28%
    13:00 +31°C° 0 mm 2 mps 755 mmHg 25%
    14:00 +32°C° 0 mm 2 mps 754 mmHg 22%
    15:00 +33°C° 0 mm 3 mps 753 mmHg 19%
    16:00 +31°C° 0 mm 3 mps 753 mmHg 21%
    17:00 +30°C° 0 mm 2 mps 753 mmHg 22%
    18:00 +29°C° 0 mm 2 mps 753 mmHg 23%
    19:00 +28°C° 0 mm 2 mps 753 mmHg 24%
    20:00 +27°C° 0 mm 2 mps 754 mmHg 25%
    21:00 +26°C° 0 mm 2 mps 754 mmHg 26%
    22:00 +26°C° 0 mm 2 mps 754 mmHg 29%
    23:00 +25°C° 0 mm 2 mps 754 mmHg 31%

    Day after tomorrow, 22 February, Thursday

    Time Temperature Precipitation Wind Pressure Humidity
    00:00 +24°C° 0 mm 2 mps 754 mmHg 33%
    01:00 +24°C° 0 mm 2 mps 754 mmHg 36%
    02:00 +23°C° 0 mm 2 mps 754 mmHg 39%
    03:00 +21°C° 0 mm 2 mps 754 mmHg 41%
    04:00 +21°C° 0 mm 2 mps 754 mmHg 43%
    05:00 +20°C° 0 mm 2 mps 754 mmHg 45%
    06:00 +20°C° 0 mm 2 mps 754 mmHg 47%
    07:00 +21°C° 0 mm 2 mps 755 mmHg 44%
    08:00 +24°C° 0 mm 2 mps 755 mmHg 41%
    09:00 +25°C° 0 mm 3 mps 756 mmHg 38%
    10:00 +27°C° 0 mm 3 mps 756 mmHg 34%
    11:00 +29°C° 0 mm 2 mps 755 mmHg 30%
    12:00 +31°C° 0 mm 2 mps 755 mmHg 25%
    13:00 +31°C° 0 mm 2 mps 754 mmHg 24%
    14:00 +32°C° 0 mm 2 mps 753 mmHg 22%
    15:00 +32°C° 0 mm 2 mps 752 mmHg 21%
    16:00 +31°C° 0 mm 2 mps 752 mmHg 22%
    17:00 +30°C° 0 mm 2 mps 752 mmHg 24%
    18:00 +29°C° 0 mm 2 mps 752 mmHg 25%
    19:00 +29°C° 0 mm 2 mps 753 mmHg 27%
    20:00 +28°C° 0 mm 2 mps 754 mmHg 28%
    21:00 +27°C° 0 mm 2 mps 755 mmHg 29%
    22:00 +26°C° 0 mm 2 mps 755 mmHg 32%
    23:00 +25°C° 0 mm 2 mps 755 mmHg 34%

    23 February, Friday

    Time Temperature Precipitation Wind Pressure Humidity
    00:00 +24°C° 0 mm 2 mps 755 mmHg 36%
    01:00 +24°C° 0 mm 2 mps 754 mmHg 38%
    02:00 +23°C° 0 mm 2 mps 754 mmHg 40%
    03:00 +23°C° 0 mm 2 mps 754 mmHg 42%
    04:00 +21°C° 0 mm 2 mps 754 mmHg 44%
    05:00 +21°C° 0 mm 2 mps 754 mmHg 45%
    06:00 +20°C° 0 mm 2 mps 754 mmHg 47%
    07:00 +22°C° 0 mm 3 mps 755 mmHg 44%
    08:00 +24°C° 0 mm 3 mps 756 mmHg 42%
    09:00 +26°C° 0 mm 4 mps 756 mmHg 39%
    10:00 +27°C° 0 mm 3 mps 756 mmHg 35%
    11:00 +29°C° 0 mm 3 mps 756 mmHg 32%
    12:00 +31°C° 0 mm 2 mps 756 mmHg 28%
    13:00 +32°C° 0 mm 2 mps 755 mmHg 27%
    14:00 +32°C° 0 mm 2 mps 754 mmHg 25%
    15:00 +32°C° 0 mm 1 mps 753 mmHg 24%
    16:00 +32°C° 0 mm 1 mps 754 mmHg 25%
    17:00 +31°C° 0 mm 1 mps 754 mmHg 27%
    18:00 +30°C° 0 mm 1 mps 754 mmHg 29%
    19:00 +29°C° 0 mm 1 mps 754 mmHg 30%
    20:00 +28°C° 0 mm 1 mps 755 mmHg 31%
    21:00 +27°C° 0 mm 1 mps 756 mmHg 32%
    22:00 +27°C° 0 mm 2 mps 756 mmHg 34%
    23:00 +26°C° 0 mm 2 mps 756 mmHg 36%

    24 February, Saturday

    Time Temperature Precipitation Wind Pressure Humidity
    00:00 +25°C° 0 mm 3 mps 756 mmHg 38%
    01:00 +24°C° 0 mm 3 mps 756 mmHg 41%
    02:00 +24°C° 0 mm 3 mps 756 mmHg 43%
    03:00 +22°C° 0 mm 3 mps 756 mmHg 45%
    04:00 +22°C° 0 mm 3 mps 756 mmHg 47%
    05:00 +21°C° 0 mm 3 mps 756 mmHg 49%
    06:00 +21°C° 0 mm 3 mps 757 mmHg 50%
    07:00 +22°C° 0 mm 3 mps 757 mmHg 47%
    08:00 +25°C° 0 mm 3 mps 758 mmHg 44%
    09:00 +26°C° 0 mm 3 mps 759 mmHg 41%
    10:00 +28°C° 0 mm 3 mps 759 mmHg 36%
    11:00 +30°C° 0 mm 3 mps 758 mmHg 32%
    12:00 +32°C° 0 mm 2 mps 758 mmHg 28%
    13:00 +32°C° 0 mm 2 mps 757 mmHg 26%
    14:00 +33°C° 0 mm 1 mps 756 mmHg 25%
    15:00 +33°C° 0 mm 1 mps 756 mmHg 23%
    16:00 +32°C° 0 mm 1 mps 756 mmHg 25%
    17:00 +32°C° 0 mm 1 mps 756 mmHg 26%
    18:00 +31°C° 0 mm 1 mps 756 mmHg 27%
    19:00 +30°C° 0 mm 2 mps 756 mmHg 29%
    20:00 +29°C° 0 mm 2 mps 757 mmHg 31%
    21:00 +28°C° 0 mm 3 mps 758 mmHg 33%
    22:00 +27°C° 0 mm 3 mps 757 mmHg 35%
    23:00 +26°C° 0 mm 3 mps 757 mmHg 38%

    25 February, Sunday

    Time Temperature Precipitation Wind Pressure Humidity
    00:00 +25°C° 0 mm 3 mps 757 mmHg 40%
    01:00 +25°C° 0 mm 2 mps 757 mmHg 42%
    02:00 +24°C° 0 mm 2 mps 757 mmHg 43%
    03:00 +24°C° 0 mm 2 mps 756 mmHg 45%
    04:00 +23°C° 0 mm 2 mps 756 mmHg 46%
    05:00 +23°C° 0 mm 2 mps 757 mmHg 47%
    06:00 +23°C° 0 mm 2 mps 757 mmHg 49%
    07:00 +24°C° 0 mm 2 mps 757 mmHg 45%
    08:00 +26°C° 0 mm 3 mps 758 mmHg 42%
    09:00 +27°C° 0 mm 3 mps 758 mmHg 38%
    10:00 +29°C° 0 mm 3 mps 758 mmHg 34%
    11:00 +31°C° 0 mm 2 mps 757 mmHg 31%
    12:00 +32°C° 0 mm 2 mps 757 mmHg 27%
    13:00 +34°C° 0 mm 2 mps 756 mmHg 25%
    14:00 +35°C° 0 mm 2 mps 755 mmHg 23%
    15:00 +35°C° 0 mm 2 mps 754 mmHg 22%
    16:00 +34°C° 0 mm 2 mps 754 mmHg 23%
    17:00 +34°C° 0 mm 2 mps 754 mmHg 25%
    18:00 +32°C° 0 mm 2 mps 754 mmHg 26%
    19:00 +31°C° 0 mm 2 mps 755 mmHg 28%
    20:00 +30°C° 0 mm 2 mps 755 mmHg 29%
    21:00 +29°C° 0 mm 2 mps 756 mmHg 31%
    22:00 +28°C° 0 mm 2 mps 755 mmHg 33%
    23:00 +27°C° 0 mm 2 mps 755 mmHg 35%
    Show more